Location: Unspecified
(0.0000°N, 0.0000°E)
Time: 05:41:33
(UTC+00:00)

A-11 Canister half - Visible Passes

Search period start: 21 May 2026 00:00
Search period end: 31 May 2026 00:00
Orbit: 1515 x 1684 km, 47.2° (Epoch: 20 May)

Date Brightness Start Highest point End Pass type
(mag) Time Alt. Az. Time Alt. Az. Time Alt. Az.
21 May 9.7 04:00:48 10° NNW 04:09:44 51° NE 04:18:55 10° ESE visible
21 May 11.6 19:01:47 10° WNW 19:06:29 14° NW 19:11:08 10° NNW visible
22 May 9.8 03:37:55 10° NNW 03:46:42 47° NE 03:55:43 10° ESE visible
22 May 11.5 18:37:52 10° W 18:43:22 16° NW 18:48:46 10° NNW visible
23 May 9.9 03:15:04 10° NNW 03:23:40 42° NE 03:32:29 10° ESE visible
23 May 9.4 05:19:48 10° WNW 05:28:22 40° SW 05:37:15 10° SSE visible
23 May 11.5 18:14:05 10° W 18:20:14 18° NW 18:26:18 10° N visible
24 May 10.0 02:52:14 10° NNW 03:00:38 39° NE 03:09:13 10° ESE visible
24 May 9.2 04:56:36 10° WNW 05:05:18 44° SW 05:14:21 10° SSE visible
25 May 10.1 02:29:24 10° NNW 02:37:36 35° NE 02:45:56 10° ESE visible
25 May 9.1 04:33:25 10° WNW 04:42:15 48° SW 04:51:26 10° SSE visible
26 May 10.2 02:06:37 10° N 02:14:33 32° NE 02:22:36 10° ESE visible
26 May 9.0 04:11:44 16° WNW 04:19:13 53° SW 04:28:29 10° SSE visible
27 May 10.7 01:55:54 20° E 01:55:54 20° E 01:59:15 10° ESE visible
27 May 8.9 03:54:21 51° W 03:56:11 58° SW 04:05:32 10° SSE visible
28 May11.301:36:48ESE01:36:48ESE01:19:04NNWvisible
28 May 9.1 03:35:10 53° S 03:35:10 53° S 03:42:33 10° SSE visible
29 May 10.0 03:15:18 30° SSE 03:15:18 30° SSE 03:19:34 10° SSE visible
29 May 10.4 05:13:37 11° SW 05:15:34 11° SW 05:18:26 10° SSW visible
30 May 10.7 02:55:00 16° SSE 02:55:00 16° SSE 02:56:34 10° SE visible
30 May 10.4 04:53:18 13° SW 04:53:18 13° SW 04:56:23 10° SSW visible
